Temperature
3 3 3 3 3 3 3 3 3 3 3 4 4 4 4 4 4 5 5 5 5 5 5 5 5 5 5 5 5 5 5 5 5 5 5 5 5 6 6 6 6 7 7
2 2 2 2 2 2 2 2 3 3 3 3 3 3 3 3 4 4 4 4 4 4 4 4 4 4 4 4 4 4 4 4 4 4 3 4 4 5 5 5 6 6 6
2 2 1 1 2 2 2 2 2 2 2 2 2 2 3 3 3 3 3 3 3 3 3 4 4 4 4 3 3 3 3 3 3 3 3 3 4 4 4 5 5 5 5
2 2 1 1 1 1 1 1 1 2 2 2 2 2 2 2 2 2 2 3 3 3 3 3 3 3 3 3 3 3 2 3 2 2 3 3 2 2 3 4 4 4 5
2 1 1 1 1 1 1 1 1 1 1 1 1 1 1 2 2 2 2 2 2 2 2 2 2 2 2 2 2 2 2 2 2 2 2 2 2 2 1 2 3 3 4
1 1 1 1 1 1 0 0 0 0 0 0 0 1 1 1 1 1 1 1 1 1 2 2 2 2 2 1 2 1 1 1 1 1 1 1 1 1 1 1 1 2 3
1 1 1 1 0 0 0 -0 -0 -0 -0 -0 0 0 0 0 1 1 1 1 1 1 1 1 1 1 1 1 1 1 1 1 0 0 0 0 1 1 0 0 0 0 1
1 1 0 0 -0 -0 -0 -0 -1 -1 -1 -0 -0 -0 -0 -0 -0 0 0 0 0 0 0 0 0 0 0 0 0 0 0 -0 -0 -0 -0 -0 -0 0 -0 -0 -0 -0 -0
1 1 0 -0 -0 -0 -1 -1 -1 -1 -1 -1 -1 -1 -1 -1 -1 -1 -1 -1 -1 -1 -1 -1 -1 -1 -0 -0 -0 -1 -1 -1 -1 -1 -1 -1 -1 -0 -0 -0 -1 -1 -1
0 -0 -0 -0 -1 -1 -1 -1 -1 -1 -1 -2 -2 -2 -2 -2 -2 -1 -1 -1 -1 -1 -1 -1 -1 -1 -1 -1 -1 -1 -1 -1 -1 -1 -1 -1 -1 -1 -1 -1 -1 -1 -1
-1 -1 -1 -1 -1 -1 -1 -2 -2 -2 -2 -2 -2 -2 -2 -2 -2 -2 -2 -2 -2 -2 -2 -2 -2 -2 -2 -2 -2 -2 -2 -2 -2 -2 -2 -2 -2 -2 -2 -1 -1 -2 -1
-1 -1 -1 -1 -2 -2 -2 -2 -3 -3 -3 -3 -3 -3 -3 -3 -3 -3 -3 -3 -3 -3 -3 -3 -3 -3 -3 -3 -3 -3 -3 -3 -3 -3 -3 -3 -2 -2 -2 -2 -2 -2 -2
-2 -2 -2 -2 -3 -3 -3 -3 -3 -3 -3 -4 -4 -4 -4 -3 -3 -3 -3 -3 -3 -3 -3 -3 -3 -3 -3 -3 -3 -3 -3 -3 -3 -3 -3 -3 -3 -3 -3 -3 -3 -2 -2
-3 -3 -3 -3 -3 -3 -4 -4 -4 -4 -4 -4 -4 -4 -4 -4 -4 -4 -4 -4 -4 -4 -4 -4 -4 -4 -4 -4 -4 -4 -4 -4 -4 -4 -4 -4 -4 -4 -3 -3 -3 -3 -3
-4 -4 -4 -4 -4 -4 -4 -4 -4 -5 -5 -5 -4 -4 -4 -4 -5 -5 -5 -5 -5 -5 -5 -5 -5 -5 -5 -5 -5 -5 -5 -5 -5 -5 -5 -4 -4 -4 -4 -4 -4 -4 -3
-4 -5 -5 -5 -5 -5 -5 -5 -5 -5 -5 -5 -5 -5 -5 -5 -5 -5 -5 -5 -5 -5 -5 -6 -6 -5 -5 -5 -5 -5 -5 -5 -5 -5 -5 -5 -5 -4 -4 -4 -4 -4 -4
-5 -5 -6 -5 -5 -5 -5 -6 -6 -6 -6 -6 -6 -6 -6 -6 -6 -6 -6 -6 -6 -6 -6 -6 -6 -6 -6 -6 -6 -6 -6 -6 -6 -6 -6 -5 -5 -5 -5 -5 -4 -4 -4
-6 -6 -6 -6 -6 -6 -6 -6 -6 -6 -6 -6 -6 -6 -6 -7 -7 -7 -7 -7 -7 -7 -7 -7 -6 -6 -6 -6 -6 -6 -6 -6 -6 -6 -6 -6 -6 -5 -5 -5 -5 -5 -4
-6 -6 -6 -6 -6 -6 -6 -7 -7 -7 -7 -7 -7 -7 -7 -7 -7 -7 -7 -7 -7 -7 -7 -7 -7 -7 -6 -6 -6 -7 -7 -7 -7 -6 -6 -6 -6 -6 -6 -6 -5 -5 -5
-6 -7 -7 -7 -7 -7 -7 -7 -7 -7 -7 -8 -8 -7 -7 -7 -7 -8 -8 -8 -8 -8 -7 -7 -7 -7 -7 -7 -7 -7 -7 -7 -7 -7 -7 -7 -6 -6 -6 -6 -6 -5 -5
-7 -7 -7 -7 -7 -7 -7 -7 -8 -8 -8 -8 -8 -8 -8 -8 -8 -8 -8 -8 -8 -8 -8 -8 -7 -7 -7 -7 -7 -7 -7 -7 -7 -7 -7 -7 -7 -6 -6 -6 -6 -6 -6
-8 -8 -8 -8 -7 -7 -8 -8 -8 -8 -8 -8 -8 -8 -8 -8 -8 -9 -8 -8 -8 -8 -8 -8 -8 -8 -8 -7 -7 -7 -7 -8 -8 -8 -7 -7 -7 -7 -7 -7 -6 -6 -6
-8 -8 -8 -8 -8 -8 -8 -8 -8 -9 -9 -9 -8 -8 -9 -9 -9 -9 -9 -9 -9 -9 -9 -9 -9 -8 -8 -8 -8 -8 -8 -8 -8 -8 -8 -8 -7 -7 -7 -7 -7 -7 -7
-8 -8 -8 -8 -8 -8 -8 -9 -9 -9 -9 -9 -9 -9 -9 -9 -9 -9 -9 -9 -9 -9 -9 -9 -9 -9 -9 -9 -8 -8 -8 -8 -8 -8 -8 -8 -8 -8 -8 -8 -8 -8 -8
-9 -9 -9 -9 -9 -9 -9 -9 -9 -9 -9 -9 -9 -9 -9 -9 -10 -10 -10 -10 -10 -10 -10 -10 -10 -9 -9 -9 -9 -9 -9 -9 -9 -9 -9 -9 -9 -9 -9 -9 -9 -9 -9
-9 -10 -9 -9 -9 -9 -9 -9 -10 -10 -10 -10 -10 -10 -10 -10 -10 -10 -10 -10 -10 -10 -10 -10 -10 -10 -9 -9 -9 -9 -9 -9 -9 -9 -9 -9 -9 -9 -9 -9 -9 -9 -9
Wind_Speed
11 9 9 9 8 7 7 7 6 5 3 3 3 3 4 3 3 2 2 3 3 2 2 1 1 1 1 1 1 1 1 1 1 1 2 2 3 3 2 2 2 2 2
10 10 10 10 9 9 8 8 7 6 6 4 4 4 4 4 3 3 3 4 4 3 2 3 2 2 2 2 1 1 1 1 1 1 2 2 2 2 3 3 2 3 2
11 10 11 11 10 10 10 8 8 7 6 5 3 2 3 3 3 4 4 4 5 5 4 4 3 3 3 3 2 2 2 2 2 2 2 2 2 2 2 3 3 3 3
10 10 10 10 11 10 9 9 8 8 7 6 6 6 6 6 6 5 4 5 5 5 5 5 5 4 3 3 3 3 3 3 3 3 3 3 2 2 2 2 3 4 4
8 8 9 10 10 9 8 8 8 7 7 7 7 8 7 6 5 5 6 5 5 6 6 5 5 5 4 4 4 4 4 4 4 3 3 4 3 4 4 4 4 4 4
6 7 7 8 8 7 7 7 7 7 7 7 8 8 9 8 7 7 6 6 5 5 7 6 6 6 5 5 5 5 6 5 5 5 4 4 4 4 4 5 5 5 4
4 5 6 7 7 8 7 7 7 8 8 8 8 8 9 9 9 9 8 7 5 5 6 7 6 7 6 6 6 6 6 6 7 6 5 5 5 5 5 5 5 6 5
4 4 5 6 7 7 8 7 8 8 8 8 8 8 8 8 7 9 8 8 7 6 7 6 7 8 7 6 6 6 6 6 7 7 7 6 5 5 5 5 5 6 6
4 4 4 5 6 7 8 8 8 8 8 8 8 7 8 8 8 8 8 7 7 6 7 7 7 7 8 7 7 6 7 7 7 7 7 6 5 5 5 6 6 6 6
3 4 5 5 6 6 7 7 8 8 8 8 7 6 7 8 8 8 8 8 8 8 8 8 8 7 8 8 7 7 7 8 7 6 8 7 6 6 6 6 6 7 8
5 5 5 5 5 5 6 7 7 7 7 7 7 7 7 8 8 8 8 8 8 8 9 8 8 8 8 8 8 8 8 9 8 8 8 9 8 6 6 6 7 7 8
5 5 5 5 5 6 6 6 6 7 7 7 7 7 7 7 8 8 8 8 8 8 8 8 9 9 9 9 9 9 9 9 9 9 9 9 7 8 7 7 8 8 8
5 5 5 5 6 6 6 6 6 7 7 7 7 7 7 8 8 8 7 7 8 8 8 8 9 9 9 9 9 9 10 10 10 10 10 10 9 9 8 8 8 8 8
6 6 6 6 6 6 6 6 7 6 6 7 7 7 8 8 7 7 7 7 7 8 8 9 9 9 9 10 9 9 10 10 10 10 10 10 11 11 10 9 9 8 9
7 7 7 7 6 6 6 6 6 6 6 7 7 7 7 6 6 6 6 7 7 8 8 8 8 8 8 9 10 9 10 10 10 10 10 11 12 13 11 9 9 9 9
8 8 8 8 7 6 6 6 6 6 6 7 7 6 6 6 6 6 6 6 7 7 8 8 9 9 8 10 11 10 10 10 10 10 10 10 12 13 14 15 14 13 11
9 9 9 8 8 7 6 6 6 6 6 6 6 6 6 6 6 6 6 7 7 7 8 9 9 9 10 10 11 11 9 10 10 10 9 8 9 11 10 11 12 13 14
8 9 8 8 7 6 6 6 5 6 6 6 6 6 6 6 5 6 6 7 6 7 8 8 9 9 9 10 10 10 9 9 10 10 10 10 10 10 10 9 10 10 10
8 8 7 7 6 6 5 4 5 5 5 5 5 5 6 6 6 6 6 6 6 6 7 7 8 8 8 10 10 10 7 8 9 9 10 10 10 12 12 10 10 10 9
7 7 6 6 5 5 4 4 4 4 5 5 5 5 5 5 6 6 6 5 5 6 6 6 7 8 8 10 10 10 7 8 7 8 9 11 11 12 12 10 9 9 9
7 6 5 5 5 5 3 4 4 4 4 4 4 4 4 5 5 5 5 5 5 5 5 6 6 7 8 9 10 10 7 7 7 6 7 7 11 11 11 10 8 9 8
7 6 5 5 5 4 3 3 4 4 3 3 3 3 3 3 3 4 4 4 4 4 5 5 5 5 5 7 8 10 11 9 7 7 6 6 9 10 10 9 8 7 6
7 6 5 5 4 3 2 3 4 3 3 3 3 2 2 3 3 3 3 3 4 4 3 4 4 4 4 5 8 9 10 10 7 6 7 7 7 7 6 6 6 5 4
6 5 4 4 4 3 3 3 3 2 2 2 2 2 2 2 2 2 3 3 3 4 3 3 4 4 3 4 4 5 5 6 6 5 5 6 6 5 4 4 4 4 4
6 4 3 4 4 4 3 3 2 1 1 2 2 2 2 2 2 2 3 3 4 4 4 4 4 4 5 5 5 4 5 4 5 5 4 3 3 4 4 3 4 4 4
5 4 4 4 4 4 3 3 2 1 1 1 1 1 1 1 1 2 3 4 4 5 6 7 7 6 7 6 6 6 6 6 6 5 4 4 5 5 4 4 4 4 4
Wind_Direction
237 230 225 222 220 219 219 222 225 223 216 221 230 235 225 218 218 226 225 216 215 221 232 227 214 243 224 258 282 264 253 285 293 269 284 273 263 264 266 264 261 275 276
235 229 225 221 220 220 220 222 223 222 221 225 232 246 229 220 219 215 228 223 219 221 233 222 210 216 219 224 234 244 236 244 232 239 261 266 248 236 256 257 259 264 265
234 228 223 220 221 222 222 223 224 224 224 224 227 240 226 219 223 221 224 228 224 221 225 226 215 212 216 218 223 227 231 232 232 222 233 249 253 304 259 251 246 258 264
234 229 223 221 222 224 223 224 225 224 222 218 219 223 231 226 229 223 222 226 225 221 221 225 219 212 215 218 221 222 230 227 232 235 243 257 259 255 278 269 261 256 258
233 230 226 225 225 225 225 226 225 224 222 222 225 229 237 236 227 220 221 223 227 225 221 224 223 213 214 217 218 220 226 227 230 233 241 242 240 242 253 270 288 286 268
240 235 232 230 229 226 223 223 224 226 225 225 228 230 233 233 225 222 223 225 226 228 224 221 225 219 216 218 220 221 224 228 230 233 235 238 235 234 246 260 274 285 285
250 242 232 229 228 225 225 225 227 231 230 229 230 233 234 233 230 224 223 226 227 228 227 222 223 221 218 217 222 223 223 226 229 233 237 239 240 241 245 254 265 278 285
257 253 243 234 232 230 230 229 230 234 233 234 237 238 238 236 237 231 225 227 229 229 227 229 231 224 219 217 220 224 226 227 230 234 238 242 242 239 238 244 258 271 274
265 265 261 250 243 237 234 233 234 236 236 237 238 240 239 240 239 235 230 232 233 231 224 224 233 232 221 219 221 226 227 228 231 235 237 241 244 241 240 239 241 250 263
279 281 274 269 260 248 241 238 237 239 238 237 238 241 243 244 241 233 231 230 232 232 227 225 227 235 230 222 222 230 228 230 232 236 236 238 242 243 240 238 240 242 250
290 290 286 279 272 258 245 241 243 243 243 241 241 242 247 245 239 233 232 231 232 231 228 226 226 231 232 228 224 227 228 230 234 235 235 237 240 243 242 239 238 241 244
292 293 288 286 273 260 253 249 247 244 244 244 243 243 248 244 238 237 237 234 233 233 232 227 226 229 233 229 228 227 228 230 233 234 235 237 238 240 242 241 240 242 244
301 300 294 286 273 263 258 255 250 248 245 243 243 243 246 241 239 238 238 237 234 234 234 229 227 229 234 231 230 231 229 231 233 233 232 236 237 239 241 241 241 243 245
298 297 295 288 274 267 263 259 258 254 246 242 241 244 244 240 240 239 238 237 235 233 234 232 231 233 236 232 231 231 232 233 234 235 235 236 236 238 241 242 241 242 245
299 298 297 293 283 276 270 263 261 259 247 241 240 243 243 241 240 239 239 239 238 233 234 235 235 236 237 231 228 230 232 234 236 237 238 238 239 241 242 241 240 240 242
299 300 298 295 289 282 274 267 263 259 247 239 240 240 239 239 239 241 242 242 242 235 233 236 236 237 239 239 238 238 234 235 236 238 240 240 240 242 245 247 248 246 244
298 300 297 291 287 282 278 273 270 264 248 239 238 237 235 237 239 240 242 243 245 241 237 238 237 240 242 241 241 244 244 241 239 238 239 243 242 242 243 247 250 252 254
297 298 297 293 288 284 278 271 266 259 246 239 239 239 237 239 240 240 242 244 245 242 236 238 239 242 242 238 241 244 245 246 244 240 239 241 242 240 241 242 245 247 249
295 294 292 290 286 280 273 264 260 255 248 241 242 242 238 237 237 239 243 245 247 248 243 240 239 239 240 237 238 242 243 244 247 245 241 239 241 241 242 242 243 248 252
302 298 296 290 283 279 270 258 258 255 252 251 248 245 241 238 240 241 244 249 247 249 254 246 242 238 238 238 237 239 238 241 246 246 243 242 240 241 242 240 240 244 249
306 303 298 289 281 276 264 256 259 261 263 263 256 247 243 243 242 243 245 245 248 249 253 253 249 243 239 236 236 238 235 238 241 243 243 241 238 241 246 248 244 244 250
310 308 301 294 288 272 254 256 265 272 272 263 258 248 247 247 243 242 246 245 245 249 254 254 254 253 245 241 237 238 240 241 241 243 245 242 243 245 249 251 247 252 255
311 309 299 299 300 282 258 256 270 276 271 263 262 252 252 252 247 243 244 244 244 247 256 259 256 258 259 249 242 239 241 243 243 245 243 245 250 251 247 239 238 245 241
314 313 309 306 307 303 289 268 272 268 259 259 264 250 242 246 251 251 245 244 245 251 258 262 267 265 263 262 250 236 236 238 239 241 242 247 250 244 245 241 237 239 239
316 319 316 312 310 309 300 295 284 262 259 267 265 257 253 255 261 270 268 266 265 264 265 269 271 267 262 261 260 249 241 234 233 233 231 231 233 234 235 239 241 241 238
322 329 331 328 325 326 324 321 316 278 257 280 290 276 265 269 276 292 311 305 291 294 291 288 287 284 279 274 265 258 249 242 229 224 222 227 230 231 233 235 238 239 238
Height
1496 1497 1498 1499 1500 1501 1503 1504 1505 1507 1508 1509 1510 1510 1511 1512 1513 1514 1515 1515 1516 1517 1518 1518 1519 1519 1520 1520 1520 1521 1521 1521 1521 1522 1521 1521 1521 1521 1521 1522 1522 1523 1524
1491 1491 1493 1494 1495 1496 1498 1499 1500 1502 1503 1504 1506 1506 1507 1507 1508 1509 1510 1511 1512 1513 1514 1514 1515 1515 1516 1517 1517 1517 1518 1518 1519 1519 1519 1520 1521 1519 1518 1518 1519 1520 1520
1485 1486 1487 1489 1490 1491 1492 1494 1495 1497 1498 1500 1501 1502 1502 1503 1504 1504 1506 1507 1508 1509 1509 1510 1510 1511 1512 1512 1513 1514 1515 1515 1516 1516 1518 1518 1517 1516 1515 1515 1515 1516 1516
1481 1482 1482 1484 1485 1487 1488 1490 1491 1492 1493 1494 1495 1496 1497 1497 1498 1499 1500 1501 1502 1503 1505 1505 1506 1506 1507 1508 1509 1510 1510 1511 1512 1513 1513 1515 1514 1514 1512 1512 1512 1512 1513
1476 1477 1478 1480 1481 1483 1484 1485 1486 1487 1488 1489 1490 1491 1492 1493 1494 1494 1495 1496 1497 1498 1499 1500 1501 1502 1502 1503 1504 1505 1506 1507 1507 1508 1509 1510 1510 1510 1510 1509 1508 1509 1509
1473 1474 1475 1476 1477 1478 1479 1480 1481 1482 1483 1484 1485 1486 1486 1487 1488 1489 1490 1491 1492 1492 1494 1495 1496 1497 1497 1498 1499 1500 1501 1502 1503 1504 1505 1505 1506 1506 1506 1506 1505 1504 1504
1470 1470 1471 1472 1472 1473 1474 1475 1475 1476 1477 1478 1479 1480 1481 1482 1482 1483 1484 1485 1486 1487 1488 1489 1490 1491 1492 1493 1494 1495 1496 1497 1498 1499 1500 1501 1501 1502 1502 1502 1501 1501 1500
1467 1467 1467 1468 1468 1469 1469 1470 1470 1471 1472 1472 1473 1474 1475 1476 1476 1477 1478 1479 1480 1481 1482 1483 1485 1486 1487 1487 1489 1490 1490 1492 1493 1493 1495 1495 1496 1497 1498 1499 1499 1497 1496
1464 1464 1465 1465 1465 1465 1465 1465 1466 1466 1466 1467 1467 1468 1469 1469 1470 1472 1472 1474 1475 1476 1477 1477 1479 1480 1481 1482 1483 1484 1485 1486 1487 1488 1489 1490 1491 1492 1493 1494 1495 1495 1493
1462 1462 1462 1461 1461 1461 1460 1461 1461 1461 1461 1461 1461 1462 1463 1464 1464 1465 1466 1467 1468 1470 1470 1471 1472 1473 1475 1476 1477 1477 1479 1480 1481 1482 1483 1484 1485 1486 1487 1488 1489 1490 1490
1459 1459 1458 1458 1457 1456 1456 1455 1455 1455 1455 1455 1455 1456 1457 1457 1458 1459 1460 1461 1462 1463 1463 1464 1466 1467 1468 1469 1470 1471 1472 1473 1475 1476 1477 1478 1479 1480 1482 1483 1483 1484 1485
1456 1455 1455 1453 1452 1451 1451 1450 1450 1449 1449 1449 1450 1450 1450 1451 1452 1452 1453 1454 1455 1456 1457 1458 1459 1461 1461 1462 1463 1464 1465 1467 1468 1469 1471 1472 1473 1474 1476 1477 1477 1478 1478
1453 1452 1451 1449 1448 1447 1446 1445 1444 1444 1444 1444 1444 1444 1444 1445 1445 1446 1446 1447 1449 1450 1451 1452 1452 1453 1455 1456 1456 1457 1459 1460 1461 1463 1464 1465 1467 1468 1469 1470 1471 1471 1472
1450 1448 1447 1445 1443 1442 1441 1440 1439 1439 1438 1438 1438 1438 1438 1438 1439 1439 1440 1441 1442 1443 1444 1445 1445 1446 1447 1449 1450 1451 1452 1453 1455 1456 1458 1459 1460 1461 1462 1463 1464 1465 1466
1446 1444 1443 1441 1439 1437 1436 1435 1433 1433 1433 1433 1432 1432 1433 1433 1433 1433 1434 1435 1436 1437 1438 1438 1439 1440 1441 1442 1444 1445 1445 1447 1448 1449 1451 1452 1453 1454 1456 1457 1458 1459 1459
1442 1440 1438 1436 1434 1432 1430 1429 1428 1428 1427 1427 1426 1427 1427 1427 1427 1427 1428 1429 1429 1430 1431 1432 1432 1433 1435 1436 1437 1439 1439 1440 1441 1442 1444 1445 1447 1448 1449 1450 1451 1452 1453
1439 1436 1433 1431 1429 1427 1424 1423 1423 1422 1422 1421 1421 1421 1421 1422 1422 1422 1423 1423 1424 1424 1425 1426 1426 1427 1428 1430 1431 1432 1433 1434 1435 1436 1437 1438 1440 1441 1442 1443 1444 1445 1445
1434 1432 1429 1426 1424 1422 1421 1420 1419 1417 1416 1416 1416 1416 1416 1417 1417 1417 1418 1418 1418 1418 1419 1420 1420 1421 1422 1423 1425 1426 1427 1428 1429 1430 1431 1432 1433 1434 1435 1436 1437 1437 1438
1430 1428 1424 1421 1419 1418 1417 1415 1414 1413 1412 1411 1411 1411 1411 1412 1412 1412 1413 1413 1413 1413 1413 1414 1414 1415 1415 1417 1419 1420 1421 1422 1423 1424 1425 1426 1426 1427 1429 1430 1430 1430 1431
1426 1423 1420 1417 1415 1414 1413 1411 1409 1408 1407 1407 1407 1407 1407 1407 1407 1408 1408 1408 1409 1409 1408 1409 1409 1409 1410 1411 1413 1414 1416 1416 1417 1418 1419 1419 1420 1421 1422 1423 1424 1424 1424
1421 1418 1415 1413 1411 1409 1408 1407 1405 1404 1404 1404 1404 1403 1404 1404 1404 1404 1404 1404 1404 1404 1404 1404 1404 1404 1405 1406 1407 1408 1410 1410 1411 1412 1413 1413 1414 1415 1416 1417 1418 1418 1419
1417 1414 1411 1408 1406 1405 1404 1403 1402 1402 1401 1401 1400 1400 1400 1401 1400 1400 1400 1400 1400 1400 1400 1400 1399 1400 1400 1400 1401 1402 1404 1405 1406 1406 1407 1408 1408 1409 1410 1411 1412 1413 1413
1414 1411 1408 1405 1403 1402 1401 1400 1399 1399 1398 1398 1397 1397 1397 1397 1397 1397 1396 1396 1396 1396 1396 1395 1395 1395 1395 1395 1396 1397 1398 1400 1400 1401 1402 1402 1403 1404 1405 1405 1406 1407 1407
1411 1408 1406 1403 1401 1399 1399 1398 1397 1396 1396 1395 1395 1394 1394 1394 1394 1394 1394 1393 1392 1392 1392 1391 1390 1390 1390 1391 1391 1392 1393 1394 1395 1396 1397 1398 1399 1399 1400 1400 1400 1401 1402
1409 1406 1404 1401 1399 1398 1397 1396 1395 1394 1394 1393 1392 1392 1392 1392 1391 1391 1391 1390 1389 1389 1388 1387 1387 1386 1385 1385 1386 1387 1388 1388 1389 1390 1391 1392 1393 1394 1394 1395 1396 1396 1396
1408 1405 1403 1401 1399 1397 1396 1395 1394 1393 1392 1391 1390 1390 1389 1389 1388 1388 1387 1386 1386 1385 1385 1384 1383 1382 1381 1381 1381 1382 1383 1383 1384 1386 1386 1387 1388 1388 1389 1390 1390 1391 1391